Weather History for Arctic Village, AK

Change the Weather History Date:

Friday, March 15, 2013

  Actual Average Record
Temperature  
Mean Temperature -4 °F -  
Max Temperature 15 °F 14 °F 33 °F (1989)
Min Temperature -22 °F -16 °F -42 °F (1972)
Degree Days  
Heating Degree Days 68    
Moisture  
Dew Point -12 °F    
Average Humidity 45    
Maximum Humidity 64    
Minimum Humidity 20    
Precipitation  
Precipitation 0.00 in - - ()
Sea Level Pressure  
Sea Level Pressure 30.24 in    
Wind  
Wind Speed 3 mph (ENE)    
Max Wind Speed 10 mph    
Max Gust Speed -    
Visibility 10 miles    
Events      
Averages and records for this station are not official NWS values.
T = Trace of Precipitation, MM = Missing Value Source: NWS Daily Summary

Daily Weather History Graph

Daily Weather History Graph

Search for Another Location

Airport:

Trip Planner

Search our weather history database for the weather conditions in past years. The results will help you decide how hot, cold, wet, or windy it might be!

Date:

Astronomy

Mar. 15, 2013 Rise Set
Actual Time 8:01 AM AKDT 7:42 PM AKDT
Civil Twilight 7:05 AM AKDT 8:38 PM AKDT
Nautical Twilight 5:57 AM AKDT 9:47 PM AKDT
Astronomical Twilight 4:38 AM AKDT 11:08 PM AKDT
Moon 7:44 AM AKDT (3/15) 1:11 AM AKDT (3/15)
Length of Visible Light 13h 33m
Length of Day
11h 41m
Waxing Crescent, 16% of the Moon is Illuminated
Mar 15
Waxing Crescent
Mar 19
First Quarter
Mar 27
Full
Apr 2
Last Quarter
Apr 10
New

Hourly Weather History & Observations

Time (AKDT) Temp. Windchill Dew Point Humidity Pressure Visibility Wind Dir Wind Speed Gust Speed Precip Events Conditions
12:16 AM -13.0 °F -27.0 °F - N/A% 30.37 in 10.0 mi NNE 5.8 mph - N/A   Scattered Clouds
12:36 AM -13.0 °F -30.0 °F - N/A% 30.37 in 10.0 mi North 8.1 mph - N/A   Partly Cloudy
12:56 AM -14.8 °F - - N/A% 30.37 in 10.0 mi Calm Calm - N/A   Mostly Cloudy
1:16 AM -18.4 °F - - N/A% 30.37 in 10.0 mi Calm Calm - N/A   Mostly Cloudy
1:36 AM -14.8 °F - - N/A% 30.37 in 10.0 mi Calm Calm - N/A   Scattered Clouds
1:56 AM -14.8 °F -24.8 °F - N/A% 30.37 in 10.0 mi SSE 3.5 mph - N/A   Mostly Cloudy
2:16 AM -14.8 °F - - N/A% 30.36 in 10.0 mi Calm Calm - N/A   Overcast
2:36 AM -14.8 °F - - N/A% 30.36 in 10.0 mi Calm Calm - N/A   Partly Cloudy
2:56 AM -11.2 °F - - N/A% 30.35 in 10.0 mi Calm Calm - N/A   Partly Cloudy
3:16 AM -18.4 °F - - N/A% 30.35 in 10.0 mi Calm Calm - N/A   Clear
3:36 AM -16.6 °F - - N/A% 30.34 in 10.0 mi Calm Calm - N/A   Partly Cloudy
3:56 AM -18.4 °F - - N/A% 30.34 in 10.0 mi Calm Calm - N/A   Clear
4:16 AM -16.6 °F - -27.4 °F 58% 30.34 in 10.0 mi Calm Calm - N/A   Clear
4:36 AM -18.4 °F - - N/A% 30.34 in 10.0 mi Calm Calm - N/A   Clear
4:56 AM -18.4 °F - - N/A% 30.33 in 10.0 mi Calm Calm - N/A   Clear
5:16 AM -14.8 °F - - N/A% 30.33 in 10.0 mi Calm Calm - N/A   Clear
5:36 AM -20.2 °F - - N/A% 30.33 in 10.0 mi Calm Calm - N/A   Partly Cloudy
5:56 AM -18.4 °F -28.9 °F - N/A% 30.32 in 10.0 mi ESE 3.5 mph - N/A   Partly Cloudy
6:16 AM -18.4 °F -28.9 °F - N/A% 30.31 in 10.0 mi East 3.5 mph - N/A   Clear
6:36 AM -20.2 °F - - N/A% 30.31 in 10.0 mi Calm Calm - N/A   Clear
6:56 AM -22.0 °F - - N/A% 30.31 in 10.0 mi Calm Calm - N/A   Clear
7:16 AM -20.2 °F -33.5 °F - N/A% 30.30 in 10.0 mi NE 4.6 mph - N/A   Clear
7:36 AM -22.0 °F -37.7 °F - N/A% 30.29 in 10.0 mi East 5.8 mph - N/A   Partly Cloudy
7:56 AM -22.0 °F -33.0 °F - N/A% 30.29 in 10.0 mi ENE 3.5 mph - N/A   Partly Cloudy
8:16 AM -20.2 °F - - N/A% 30.28 in 10.0 mi Calm Calm - N/A   Clear
8:36 AM -18.4 °F -28.9 °F - N/A% 30.28 in 10.0 mi NE 3.5 mph - N/A   Clear
8:56 AM -20.2 °F - - N/A% 30.27 in 10.0 mi Calm Calm - N/A   Clear
9:16 AM -16.6 °F - -25.6 °F 64% 30.27 in 10.0 mi Calm Calm - N/A   Clear
9:36 AM -18.4 °F - - N/A% 30.27 in 10.0 mi Calm Calm - N/A   Clear
9:56 AM -18.4 °F - - N/A% 30.26 in 10.0 mi Calm Calm - N/A   Clear
10:16 AM -14.8 °F - - N/A% 30.26 in 10.0 mi Calm Calm - N/A   Clear
10:36 AM -14.8 °F - - N/A% 30.25 in 10.0 mi Calm Calm - N/A   Clear
10:56 AM -13.0 °F - - N/A% 30.25 in 10.0 mi Calm Calm - N/A   Clear
11:16 AM -11.2 °F - - N/A% 30.25 in 10.0 mi Calm Calm - N/A   Clear
11:36 AM -7.6 °F - -29.2 °F 34% 30.25 in 10.0 mi Calm Calm - N/A   Clear
11:56 AM -7.6 °F - -27.4 °F 38% 30.25 in 10.0 mi Calm Calm - N/A   Clear
12:16 PM -5.8 °F - -23.8 °F 42% 30.24 in 10.0 mi Calm Calm - N/A   Clear
12:36 PM -4.0 °F - -20.2 °F 46% 30.24 in 10.0 mi Calm Calm - N/A   Clear
12:56 PM -2.2 °F - -22.0 °F 39% 30.23 in 10.0 mi Calm Calm - N/A   Clear
1:16 PM -0.4 °F - -16.6 °F 46% 30.22 in 10.0 mi Calm Calm - N/A   Clear
1:36 PM 1.4 °F -8.3 °F -11.2 °F 56% 30.21 in 10.0 mi ENE 4.6 mph - N/A   Clear
1:56 PM 1.4 °F - -18.4 °F 39% 30.21 in 10.0 mi Calm Calm - N/A   Clear
2:16 PM 3.2 °F - -16.6 °F 39% 30.21 in 10.0 mi Calm Calm - N/A   Clear
2:36 PM 5.0 °F - -7.6 °F 56% 30.19 in 10.0 mi Calm Calm - N/A   Clear
2:56 PM 8.6 °F 2.0 °F -7.6 °F 48% 30.19 in 10.0 mi East 3.5 mph - N/A   Clear
3:16 PM 8.6 °F -1.3 °F -25.6 °F 20% 30.18 in 10.0 mi North 5.8 mph - N/A   Clear
3:36 PM 12.2 °F 6.1 °F -14.8 °F 29% 30.18 in 10.0 mi North 3.5 mph - N/A   Clear
3:56 PM 12.2 °F 6.1 °F -9.4 °F 38% 30.17 in 10.0 mi ENE 3.5 mph - N/A   Clear
4:16 PM 14.0 °F 1.2 °F -2.2 °F 49% 30.17 in 10.0 mi North 10.4 mph - N/A   Clear
4:36 PM 15.8 °F 4.2 °F -0.4 °F 49% 30.16 in 10.0 mi North 9.2 mph - N/A   Clear
4:56 PM 15.8 °F 7.2 °F -0.4 °F 49% 30.16 in 10.0 mi NNE 5.8 mph - N/A   Clear
5:16 PM 15.8 °F 5.1 °F -0.4 °F 49% 30.15 in 10.0 mi North 8.1 mph - N/A   Clear
5:36 PM 15.8 °F 10.2 °F -0.4 °F 49% 30.15 in 10.0 mi East 3.5 mph - N/A   Clear
5:56 PM 14.0 °F 2.0 °F -4.0 °F 45% 30.14 in 10.0 mi East 9.2 mph - N/A   Clear
6:16 PM 12.2 °F 0.7 °F -2.2 °F 53% 30.14 in 10.0 mi East 8.1 mph - N/A   Clear
6:36 PM 12.2 °F 2.9 °F -2.2 °F 53% 30.13 in 10.0 mi ENE 5.8 mph - N/A   Clear
6:56 PM 12.2 °F - -2.2 °F 53% 30.14 in 10.0 mi Calm Calm - N/A   Clear
7:16 PM 12.2 °F - -5.8 °F 45% 30.14 in 10.0 mi Calm Calm - N/A   Clear
7:36 PM 10.4 °F -3.3 °F -7.6 °F 44% 30.14 in 10.0 mi SSE 10.4 mph - N/A   Clear
7:56 PM 10.4 °F -3.3 °F -5.8 °F 48% 30.13 in 10.0 mi SE 10.4 mph - N/A   Clear
8:16 PM 8.6 °F - -9.4 °F 44% 30.14 in 10.0 mi Calm Calm - N/A   Clear
8:36 PM 6.8 °F -0.1 °F -9.4 °F 48% 30.14 in 10.0 mi SSE 3.5 mph - N/A   Clear
9:56 PM 3.2 °F - -14.8 °F 43% 30.14 in 10.0 mi Calm Calm - N/A   Clear
10:16 PM 3.2 °F - -23.8 °F 28% 30.14 in 10.0 mi Calm Calm - N/A   Clear
10:36 PM 6.8 °F -0.1 °F -13.0 °F 40% 30.14 in 10.0 mi South 3.5 mph - N/A   Clear
10:56 PM 6.8 °F -0.1 °F -14.8 °F 37% 30.14 in 10.0 mi ESE 3.5 mph - N/A   Clear
11:16 PM 6.8 °F -6.9 °F -14.8 °F 37% 30.14 in 10.0 mi East 9.2 mph - N/A   Clear
11:36 PM 8.6 °F -4.7 °F -5.8 °F 52% 30.14 in 10.0 mi East 9.2 mph - N/A   Clear
11:56 PM 6.8 °F -6.9 °F -13.0 °F 40% 30.14 in 10.0 mi East 9.2 mph - N/A   Clear